Theta_e
341 340 332 329 330 333 336 331 331 331 332 333 335 335 334 334 332 329 334 336 336 338 332 327 329 329 339 337 341 330 334 333 327 329 331 329 330 330 331 332 333 333 333
341 340 331 331 331 332 330 329 329 329 330 331 331 332 332 333 333 332 335 335 339 338 331 327 325 326 328 334 334 337 337 333 334 337 338 343 343 335 332 330 331 330 330
340 343 330 331 333 333 332 331 331 329 331 332 332 332 333 332 331 329 331 338 329 330 330 334 326 325 326 328 329 330 329 328 329 332 338 342 342 335 332 330 333 330 327
331 334 329 331 333 332 331 331 330 330 329 330 330 329 330 331 332 331 330 330 329 330 331 329 327 326 324 329 331 337 331 335 335 329 332 332 331 330 327 330 331 330 329
330 331 329 330 332 331 331 330 330 330 330 329 329 329 330 329 329 328 327 327 327 327 328 329 328 327 324 324 332 339 342 344 344 342 336 332 330 330 330 332 334 330 327
330 331 330 329 332 332 331 331 330 330 329 329 330 330 329 329 329 328 331 335 335 338 334 328 330 329 328 323 333 342 342 341 344 343 340 337 327 325 328 327 324 325 330
330 331 331 330 330 331 331 330 330 329 330 331 330 331 332 332 329 331 335 335 336 335 335 337 333 330 331 326 326 340 342 343 344 343 340 337 326 326 339 338 328 324 327
328 330 331 330 330 330 330 330 330 333 335 337 337 336 336 334 330 331 333 337 335 333 331 335 336 335 336 330 323 338 340 341 340 340 340 340 339 331 334 329 328 326 325
339 335 331 330 331 330 331 333 334 336 337 339 338 336 336 334 329 328 332 337 333 334 334 333 335 336 336 337 330 331 334 341 342 341 341 340 340 335 328 329 325 328 327
343 339 333 330 332 344 335 334 335 337 337 338 337 336 335 331 328 327 333 337 335 333 334 334 332 333 335 335 336 335 334 338 341 342 340 341 341 337 330 331 327 327 332
342 339 333 331 331 332 333 334 337 339 340 339 338 337 335 330 328 330 334 338 335 336 336 337 331 331 334 335 335 337 337 338 340 342 340 341 342 341 338 330 327 328 331
344 340 339 337 337 338 339 340 340 340 339 336 333 333 335 330 329 330 332 335 339 336 338 337 334 331 334 336 337 337 338 339 338 342 340 339 333 341 338 331 326 328 330
346 341 338 339 339 339 339 336 333 334 335 330 333 336 335 330 330 331 334 334 340 335 339 339 333 333 334 337 337 337 337 338 337 339 341 338 340 338 339 329 332 334 335
345 344 342 341 339 339 335 331 334 334 334 334 332 338 338 334 329 335 338 338 340 339 341 341 337 333 337 341 340 340 336 338 338 338 339 341 341 341 341 335 333 334 334
346 345 345 346 345 345 341 342 336 332 337 335 338 340 338 336 329 337 340 340 339 340 342 342 339 339 341 342 341 339 341 342 338 336 339 340 341 342 340 340 339 333 336
347 346 346 347 345 346 343 341 342 336 340 340 339 338 337 335 332 342 339 340 338 339 342 344 344 343 342 340 343 343 342 343 341 338 338 340 342 336 335 338 337 337 339
347 346 346 347 346 345 345 343 341 338 341 340 339 338 336 335 343 340 338 341 341 337 343 341 344 345 343 342 341 344 342 343 341 340 342 342 342 340 339 338 338 339 340
347 347 347 347 346 346 346 344 341 340 342 343 339 339 339 342 343 345 344 340 339 340 339 341 343 343 342 340 343 344 345 343 342 342 342 342 340 344 345 345 342 343 344
347 347 347 347 347 347 347 344 343 343 342 344 344 344 344 344 343 342 342 340 340 341 340 340 340 340 340 342 343 345 344 342 341 342 342 344 344 343 341 344 347 345 346
348 348 348 347 348 349 348 347 346 342 346 346 343 344 344 344 344 345 345 343 341 341 342 342 342 343 343 342 344 344 343 343 343 344 343 345 344 345 345 345 344 348 346
348 349 349 348 349 349 349 348 347 347 346 347 346 346 344 344 344 344 344 346 342 343 343 341 343 343 342 344 343 342 343 341 342 342 344 345 345 345 345 346 346 343 344
349 349 349 349 350 349 349 349 347 348 348 345 344 347 346 345 347 346 346 345 346 345 343 344 345 339 339 344 341 341 343 341 340 338 342 343 345 345 346 346 347 346 346
349 350 349 350 350 350 350 349 350 350 350 348 345 346 347 348 348 347 346 347 347 343 346 342 345 345 341 343 340 342 342 340 339 337 337 339 341 345 345 345 348 347 347
350 351 351 351 350 350 351 349 349 349 345 346 347 348 347 347 345 344 344 345 344 345 344 344 343 341 342 342 342 340 341 339 341 340 340 340 340 343 343 345 346 348 347
350 351 352 352 352 351 352 352 351 349 348 347 349 349 348 348 340 337 337 343 345 345 345 343 343 342 343 343 342 343 342 342 341 341 341 341 340 339 345 345 345 343 348
350 351 353 352 351 351 350 350 350 351 350 348 351 348 349 349 347 345 341 338 343 343 343 338 339 344 344 339 343 344 343 342 339 339 339 339 340 340 339 345 345 346 346
Wind_Speed
26 26 26 31 32 31 29 27 27 26 27 27 27 24 22 22 20 19 17 16 15 14 13 13 14 15 16 15 17 17 18 17 18 20 21 21 20 18 17 17 17 17 17
30 26 28 31 32 31 30 28 29 28 26 25 22 21 20 19 19 18 17 18 17 15 14 14 15 15 15 17 17 17 17 17 18 18 18 18 17 17 15 16 15 15 15
31 28 30 31 30 29 28 27 26 24 23 21 20 18 17 16 16 16 16 15 14 15 15 15 15 15 16 15 16 17 18 16 14 13 14 15 16 14 12 14 14 14 13
31 30 31 31 29 28 27 25 23 21 20 18 17 15 14 13 12 12 11 11 11 10 11 12 13 13 15 17 17 18 20 19 16 13 11 11 13 11 11 11 12 12 12
31 30 30 31 29 26 24 21 17 15 15 15 13 13 13 12 11 9 8 7 7 7 7 7 9 11 12 14 15 17 17 16 13 11 9 6 8 10 10 10 11 10 9
31 29 28 29 27 25 21 17 13 12 13 13 13 12 11 9 7 7 6 5 5 4 4 4 6 8 10 12 15 15 13 11 11 7 6 4 4 8 10 10 9 9 9
30 28 27 26 26 24 21 17 14 13 13 13 12 10 8 7 6 5 3 1 3 3 4 5 6 7 9 12 15 15 13 10 10 13 7 6 4 4 7 8 7 7 7
28 27 25 25 24 23 22 19 16 15 13 11 9 8 6 5 4 3 2 2 1 2 4 5 5 7 9 12 16 16 10 8 6 7 10 7 5 6 5 6 5 5 5
23 24 25 25 23 22 21 18 16 14 12 10 9 8 7 6 4 1 1 2 2 3 3 4 6 7 9 12 17 15 13 9 8 6 11 11 9 7 6 7 7 7 5
23 23 23 24 23 21 20 17 15 12 11 10 9 9 7 6 5 3 2 3 4 4 3 4 5 6 8 10 13 16 15 12 11 10 17 15 14 10 10 9 9 8 8
23 23 22 23 23 21 19 17 14 11 10 8 8 8 8 7 5 4 5 5 5 4 4 3 5 6 8 9 11 13 12 14 14 12 11 13 16 12 11 11 11 11 9
21 22 21 21 21 19 17 15 13 12 12 10 8 9 10 9 6 4 7 6 6 4 5 5 4 7 8 9 10 10 13 15 17 15 12 14 15 14 11 11 12 13 11
14 18 19 18 18 17 17 15 11 11 11 9 10 13 16 11 8 10 11 9 6 5 5 5 5 7 7 8 6 7 11 15 16 15 14 15 12 20 13 12 12 13 14
19 17 18 15 15 13 15 16 9 6 11 12 14 18 19 19 9 5 6 7 6 7 6 6 7 7 7 6 6 11 7 10 16 16 15 21 21 17 15 14 15 14 15
19 16 17 16 12 11 13 12 13 9 10 13 14 14 15 16 13 11 11 4 4 2 3 7 9 8 7 6 7 11 8 9 10 11 14 16 15 17 15 15 16 15 15
18 17 17 17 10 12 8 11 11 12 7 9 11 13 12 13 14 7 8 10 4 1 3 8 9 8 9 8 10 11 11 9 7 8 12 12 15 13 13 15 17 16 17
20 16 19 16 12 12 11 9 10 10 7 6 6 8 11 12 10 7 8 5 5 4 2 5 7 10 10 10 9 11 13 13 10 9 7 11 10 9 11 15 17 16 16
23 21 17 17 15 13 11 9 10 8 7 7 10 10 10 11 9 6 5 4 5 7 9 9 10 11 12 11 10 12 11 12 11 10 11 10 13 13 11 14 15 16 14
22 18 14 17 15 12 9 10 9 11 9 9 10 10 11 11 9 9 7 5 7 10 12 13 13 11 11 13 13 12 15 14 15 15 15 15 17 17 17 12 13 16 15
23 17 13 14 14 12 11 11 11 13 13 9 9 9 10 11 9 10 7 5 10 11 13 18 18 15 14 13 13 13 19 20 20 19 19 21 17 16 19 17 16 15 12
26 20 16 17 18 16 15 13 14 12 10 9 9 8 9 9 9 10 9 8 10 9 9 13 14 15 13 14 16 17 17 17 23 22 19 20 22 23 20 20 17 17 17
25 21 19 18 17 16 15 11 8 9 10 7 10 11 10 10 9 11 13 13 12 10 10 12 13 11 13 15 19 18 16 13 15 18 19 23 21 24 23 23 22 19 18
27 25 23 18 18 17 15 12 13 12 10 9 4 8 6 8 7 10 14 16 17 13 11 10 11 15 15 16 18 15 7 7 10 12 16 18 23 23 23 25 24 21 20
28 25 22 17 19 18 17 15 16 11 8 3 5 5 8 8 6 7 14 14 14 15 15 13 11 17 18 16 17 18 18 18 6 7 8 11 7 20 22 23 22 20 22
28 27 23 19 17 18 20 18 15 12 8 7 5 4 6 6 6 7 8 3 10 12 16 18 15 16 18 14 19 18 17 17 16 14 18 15 13 15 20 23 21 22 19
33 30 26 21 18 21 21 20 20 14 10 9 7 1 11 9 9 5 5 2 9 10 14 13 17 17 14 14 16 20 20 15 16 18 18 18 24 20 20 22 22 21 23
Wind_Direction
152 147 141 140 142 142 137 133 130 126 125 123 121 121 120 118 117 114 114 114 122 121 109 112 116 114 118 118 122 119 118 120 125 123 122 116 115 117 121 122 123 126 127
148 152 145 141 139 140 137 134 131 129 130 129 125 123 119 115 114 112 108 110 112 110 109 112 113 114 115 118 122 123 125 130 133 130 123 122 119 119 122 126 123 120 121
151 150 149 146 144 141 137 133 131 131 131 128 124 120 113 110 110 110 112 111 107 107 108 108 113 120 125 126 126 128 131 129 126 120 123 123 122 123 128 131 128 124 122
154 153 152 152 148 143 138 135 133 133 133 130 126 121 114 111 113 112 110 108 107 107 108 108 111 118 128 136 137 129 128 124 116 123 120 132 136 131 135 131 127 127 128
157 154 154 158 155 151 147 142 141 142 141 138 134 126 120 119 121 119 115 113 115 120 120 122 118 119 129 140 143 146 141 133 123 117 117 126 145 137 144 141 137 133 132
157 154 155 162 162 164 163 161 159 154 146 143 139 132 129 126 122 120 122 118 116 130 149 160 153 134 132 148 152 149 147 152 139 153 138 121 169 155 154 146 143 143 142
157 157 158 162 167 170 172 174 168 158 151 148 141 141 140 135 127 117 117 122 118 153 179 187 189 174 150 155 164 164 157 151 162 181 168 132 156 193 172 163 159 149 152
160 163 162 163 165 169 171 169 163 159 158 155 155 158 155 139 136 138 156 182 173 174 176 193 203 192 177 165 171 172 175 187 199 203 175 180 185 232 223 213 196 171 166
164 168 168 167 166 168 169 167 171 175 174 173 171 180 177 171 174 178 258 265 245 179 187 200 206 208 192 186 179 184 199 203 216 202 200 200 197 230 237 246 228 205 192
167 175 176 173 174 169 172 179 186 191 192 196 197 204 203 194 194 216 253 264 232 212 212 221 224 214 206 196 196 202 204 218 217 208 197 205 214 215 228 244 250 229 217
169 177 182 182 183 183 185 190 196 199 196 203 211 229 226 222 216 240 267 245 227 224 214 225 226 218 210 204 202 206 212 226 213 214 208 221 223 222 229 240 249 252 235
174 185 185 188 188 188 190 195 199 201 201 200 218 243 245 241 235 249 278 258 211 234 221 227 222 213 208 205 195 207 209 217 215 210 219 222 228 236 235 243 249 252 249
182 181 184 194 197 201 200 197 208 215 220 227 251 261 245 235 255 256 279 252 226 225 219 208 215 220 205 187 184 195 217 214 212 219 229 221 241 237 240 237 244 256 261
182 182 186 195 191 198 204 208 218 233 239 249 263 271 248 237 240 291 177 162 201 243 214 197 213 200 181 209 222 227 215 217 215 230 238 231 224 224 228 228 244 264 268
186 186 191 191 193 196 201 213 223 238 268 254 261 250 239 225 219 201 193 179 226 264 211 187 202 198 201 203 209 206 212 214 219 234 225 217 214 223 228 235 248 260 266
190 193 202 198 198 208 216 222 224 224 285 246 253 221 223 204 213 213 193 220 240 263 197 191 225 235 215 222 243 233 236 224 220 206 217 223 223 217 224 234 248 250 261
197 193 206 206 204 220 227 223 225 227 243 207 202 186 189 194 186 189 203 223 242 258 221 207 214 223 228 239 240 258 248 231 238 234 223 207 226 227 231 239 242 248 260
199 198 205 208 211 222 229 219 214 214 209 193 178 180 197 202 218 232 232 251 292 289 238 232 230 232 237 233 250 255 247 247 250 246 226 226 229 240 251 255 252 255 260
197 200 205 206 205 213 204 203 197 203 195 194 194 195 192 201 231 256 262 277 277 264 249 246 230 241 230 231 237 252 254 259 256 246 243 239 242 248 252 261 266 260 259
203 210 205 201 200 204 195 190 196 190 184 179 178 191 204 213 233 256 273 273 258 259 258 241 221 225 236 243 239 242 249 251 245 245 249 251 242 248 252 258 259 261 266
204 206 209 205 204 208 205 206 205 202 194 191 182 197 195 196 222 251 259 266 264 261 246 222 230 238 237 247 252 259 260 253 253 257 241 237 243 252 253 243 247 263 268
203 209 207 204 210 215 219 218 213 198 208 209 206 208 210 213 233 251 267 261 272 258 230 228 233 235 236 245 254 255 263 259 248 265 238 248 244 246 249 248 243 254 261
210 210 208 208 212 221 219 208 212 217 227 214 155 209 213 221 236 266 271 278 272 255 248 237 237 238 250 254 251 244 258 252 273 276 235 258 247 242 244 243 240 247 257
214 212 211 211 216 225 221 216 218 221 224 211 186 142 180 205 225 293 275 258 249 266 262 255 238 243 250 253 253 247 256 264 302 297 242 260 256 242 244 238 242 238 251
217 216 211 216 228 229 225 224 227 221 214 208 194 212 198 194 122 340 191 243 249 249 269 247 242 249 246 243 247 260 260 255 274 285 300 288 292 283 248 245 243 247 249
223 218 215 216 223 232 224 225 225 226 220 224 222 105 214 227 252 341 19 311 219 218 230 233 242 239 252 259 263 262 258 256 273 275 278 292 293 294 258 239 242 243 244